This demonstration page uses our WeatherBlox Daily Observations layout. Learn more.

Hourly Observations for October 10, 2020

Temp ( °F °C ) Dew Point ( °F °C ) Humidity (%) Winds ( mph kmh ) Pressure ( in mb ) Visibility ( mi km ) Precip ( " mm )
12:15 am 00:15 Clear 55 13 52 11 88 88 S 7 11 30.14 1021 10 16.0934 0 0
12:35 am 00:35 Clear 55 13 52 11 88 88 S 6 9 30.13 1020 10 16.0934 0 0
12:55 am 00:55 Clear 55 13 52 11 88 88 S 5 7 30.13 1020 10 16.0934 0 0
1:15 am 01:15 Clear 55 13 52 11 88 88 Calm 30.13 1020 10 16.0934 0 0
1:35 am 01:35 Clear 55 13 52 11 88 88 Calm 30.13 1020 10 16.0934 0 0
1:55 am 01:55 Clear 52 11 52 11 100 100 Calm 30.13 1020 10 16.0934 0 0
2:15 am 02:15 Clear 54 12 52 11 94 94 Calm 30.13 1020 10 16.0934 0 0
2:35 am 02:35 Clear 52 11 52 11 100 100 S 3 6 30.11 1020 10 16.0934 0 0
2:55 am 02:55 Clear 54 12 52 11 94 94 SSW 3 6 30.1 1019 10 16.0934 0 0
3:15 am 03:15 Clear 52 11 52 11 100 100 SSW 3 6 30.09 1019 10 16.0934 0 0
3:35 am 03:35 Clear 52 11 52 11 100 100 Calm 30.09 1019 10 16.0934 0 0
3:55 am 03:55 Clear 52 11 52 11 100 100 Calm 30.08 1019 10 16.0934 0 0
4:15 am 04:15 Clear 52 11 52 11 100 100 Calm 30.08 1019 10 16.0934 0 0
4:35 am 04:35 Clear 52 11 52 11 100 100 Calm 30.08 1019 10 16.0934 0 0
4:55 am 04:55 Clear 52 11 52 11 100 100 Calm 30.09 1019 10 16.0934 0 0
5:15 am 05:15 Clear 52 11 52 11 100 100 Calm 30.1 1019 10 16.0934 0 0
5:35 am 05:35 Clear 52 11 52 11 100 100 Calm 30.1 1019 10 16.0934 0 0
5:55 am 05:55 Clear 52 11 52 11 100 100 Calm 30.1 1019 10 16.0934 0 0
6:15 am 06:15 Clear 52 11 52 11 100 100 Calm 30.09 1019 10 16.0934 0 0
6:35 am 06:35 Clear 52 11 52 11 100 100 Calm 30.08 1019 10 16.0934 0 0
6:55 am 06:55 Clear 52 11 50 10 94 94 Calm 30.09 1019 10 16.0934 0 0
7:15 am 07:15 Clear 50 10 50 10 100 100 SSW 3 6 30.1 1019 10 16.0934 0 0
7:35 am 07:35 Sunny 50 10 50 10 100 100 Calm 30.11 1020 10 16.0934 0 0
7:55 am 07:55 Sunny 50 10 50 10 100 100 Calm 30.11 1020 10 16.0934 0 0
8:15 am 08:15 Sunny 52 11 52 11 100 100 Calm 30.1 1019 10 16.0934 0 0
8:35 am 08:35 Sunny 52 11 52 11 100 100 Calm 30.1 1019 10 16.0934 0 0
8:55 am 08:55 Sunny 54 12 52 11 94 94 S 3 6 30.1 1019 10 16.0934 0 0
9:15 am 09:15 Sunny 54 12 54 12 100 100 Calm 30.1 1019 10 16.0934 0 0
9:35 am 09:35 Sunny 55 13 54 12 94 94 Calm 30.1 1019 10 16.0934 0 0
9:55 am 09:55 Sunny 55 13 54 12 94 94 Calm 30.09 1019 10 16.0934 0 0
10:15 am 10:15 Mostly Cloudy 57 14 54 12 88 88 Calm 30.09 1019 10 16.0934 0 0
10:35 am 10:35 Cloudy 59 15 55 13 88 88 Calm 30.1 1019 10 16.0934 0 0
10:55 am 10:55 Cloudy 59 15 54 12 82 82 Calm 30.08 1019 10 16.0934 0 0
11:15 am 11:15 Cloudy 59 15 55 13 88 88 Calm 30.09 1019 10 16.0934 0 0
11:35 am 11:35 Cloudy 59 15 55 13 88 88 SSW 3 6 30.08 1019 10 16.0934 0 0
11:55 am 11:55 Cloudy 61 16 57 14 88 88 Calm 30.07 1018 10 16.0934 0 0
12:15 pm 12:15 Cloudy 63 17 57 14 83 83 SSW 3 6 30.07 1018 10 16.0934 0 0
12:35 pm 12:35 Mostly Cloudy 63 17 59 15 88 88 SW 3 6 30.07 1018 10 16.0934 0 0
12:55 pm 12:55 Sunny 64 18 59 15 83 83 WSW 5 7 30.04 1017 10 16.0934 0 0
1:15 pm 13:15 Sunny 68 20 61 16 78 78 SSW 6 9 30.03 1017 10 16.0934 0 0
1:35 pm 13:35 Sunny 70 21 61 16 73 73 Calm 30.02 1017 10 16.0934 0 0
1:55 pm 13:55 Sunny 72 22 61 16 69 69 SSW 6 9 30.01 1016 10 16.0934 0 0
2:15 pm 14:15 Mostly Cloudy 73 23 61 16 65 65 SW 14 22 30 1016 10 16.0934 0 0
2:35 pm 14:35 Mostly Cloudy 72 22 61 16 69 69 SW 9 15 30 1016 10 16.0934 0 0
2:55 pm 14:55 Mostly Cloudy 72 22 63 17 73 73 SSW 8 13 30 1016 10 16.0934 0 0
3:15 pm 15:15 Mostly Cloudy 72 22 63 17 73 73 SW 6 9 30 1016 10 16.0934 0 0
3:35 pm 15:35 Cloudy 70 21 63 17 78 78 S 7 11 29.99 1016 10 16.0934 0 0
3:55 pm 15:55 Cloudy 70 21 63 17 78 78 SSW 7 11 29.99 1016 10 16.0934 0 0
4:15 pm 16:15 Cloudy 70 21 63 17 78 78 S 8 13 29.99 1016 10 16.0934 0 0
4:35 pm 16:35 Cloudy N/A N/A N/A S 6 9 N/A 10 16.0934 0 0
4:55 pm 16:55 Cloudy 68 20 63 17 83 83 S 6 9 30 1016 10 16.0934 0 0
5:15 pm 17:15 Cloudy 68 20 63 17 83 83 S 5 7 30 1016 10 16.0934 0 0
5:35 pm 17:35 Cloudy 68 20 63 17 83 83 SSW 5 7 30 1016 10 16.0934 0 0
5:55 pm 17:55 Cloudy 66 19 63 17 88 88 SSW 5 7 30 1016 10 16.0934 0 0
6:15 pm 18:15 Cloudy 66 19 63 17 88 88 S 5 7 29.99 1016 10 16.0934 0 0
6:35 pm 18:35 Cloudy 64 18 63 17 94 94 SSW 6 9 30 1016 10 16.0934 0 0
6:55 pm 18:55 Cloudy 64 18 63 17 94 94 SSW 7 11 29.99 1016 10 16.0934 0 0
7:15 pm 19:15 Cloudy 64 18 63 17 94 94 SSW 5 7 29.99 1016 10 16.0934 0 0
7:35 pm 19:35 Cloudy 63 17 61 16 94 94 SW 7 11 30.01 1016 10 16.0934 0 0
7:55 pm 19:55 Partly Cloudy 63 17 61 16 94 94 SW 5 7 30 1016 10 16.0934 0 0
8:15 pm 20:15 Partly Cloudy 63 17 61 16 94 94 SW 5 7 30.01 1016 10 16.0934 0 0
8:35 pm 20:35 Clear 63 17 61 16 94 94 SW 6 9 30.01 1016 10 16.0934 0 0
8:55 pm 20:55 Clear 63 17 61 16 94 94 SW 3 6 30.01 1016 10 16.0934 0 0
9:15 pm 21:15 Partly Cloudy 63 17 61 16 94 94 SW 5 7 30.02 1016 10 16.0934 0 0
9:35 pm 21:35 Clear 63 17 61 16 94 94 Calm 30.02 1016 10 16.0934 0 0
9:55 pm 21:55 Partly Cloudy 63 17 61 16 94 94 Calm 30.02 1016 10 16.0934 0 0
10:15 pm 22:15 Mostly Cloudy 61 16 61 16 100 100 Calm 30.03 1017 10 16.0934 0 0
10:35 pm 22:35 Partly Cloudy 61 16 61 16 100 100 Calm 30.03 1017 10 16.0934 0 0
10:55 pm 22:55 Mostly Cloudy 61 16 61 16 100 100 SW 6 9 30.03 1017 10 16.0934 0 0
11:15 pm 23:15 Partly Cloudy 61 16 61 16 100 100 Calm 30.03 1017 10 16.0934 0 0
11:35 pm 23:35 Clear 61 16 59 15 94 94 SW 3 6 30.02 1016 10 16.0934 0 0
11:55 pm 23:55 Partly Cloudy 59 15 59 15 100 100 Calm 30.03 1017 10 16.0934 0 0

Powered by AerisWeather